Change the Weather History Date:

Tuesday, June 3, 2014

  Actual Average Record
Temperature  
Mean Temperature 73 °F -  
Max Temperature 84 °F 74 °F 93 °F (1944)
Min Temperature 60 °F 53 °F 41 °F (1957)
Cooling Degree Days 8    
Growing Degree Days 23 (Base 50)    
Moisture  
Dew Point 57 °F    
Average Humidity 58    
Maximum Humidity 88    
Minimum Humidity 28    
Precipitation  
Precipitation 0.00 in - - ()
Sea Level Pressure  
Sea Level Pressure 29.86 in    
Wind  
Wind Speed 15 mph (West)    
Max Wind Speed 28 mph    
Max Gust Speed 38 mph    
Visibility 10 miles    
Events      
Averages and records for this station are not official NWS values.
T = Trace of Precipitation, MM = Missing Value Source: NWS Daily Summary

Daily Weather History Graph

Daily Weather History Graph

Search for Another Location

Airport or City:

Trip Planner

Search our weather history database for the weather conditions in past years. The results will help you decide how hot, cold, wet, or windy it might be!

Date:

Astronomy

Jun. 03, 2014 Rise Set
Actual Time 6:00 AM EDT 9:04 PM EDT
Civil Twilight 5:26 AM EDT 9:37 PM EDT
Nautical Twilight 4:43 AM EDT 10:21 PM EDT
Astronomical Twilight 3:52 AM EDT 11:12 PM EDT
Moon 11:25 AM EDT (6/3) 12:28 AM EDT (6/3)
Length of Visible Light 16h 11m
Length of Day
15h 04m
Waxing Crescent, 30% of the Moon is Illuminated
Jun 3
Waxing Crescent
Jun 5
First Quarter
Jun 13
Full
Jun 19
Last Quarter
Jun 27
New

Hourly Weather History & Observations

Time (EDT) Temp. Heat Index Dew Point Humidity Pressure Visibility Wind Dir Wind Speed Gust Speed Precip Events Conditions
12:13 AM 73.4 °F - 66.2 °F 78% 29.88 in 10.0 mi SW 12.7 mph 20.7 mph N/A   Overcast
12:33 AM 73.4 °F - 66.2 °F 78% 29.88 in 10.0 mi SW 11.5 mph 16.1 mph N/A   Overcast
1:13 AM 73.4 °F - 66.2 °F 78% 29.88 in 10.0 mi SW 19.6 mph 26.5 mph N/A   Overcast
1:33 AM 73.4 °F - 66.2 °F 78% 29.87 in 10.0 mi SW 17.3 mph 24.2 mph N/A   Overcast
1:53 AM 73.4 °F - 66.2 °F 78% 29.87 in 10.0 mi SW 15.0 mph 23.0 mph N/A   Overcast
2:13 AM 71.6 °F - 66.2 °F 83% 29.87 in 10.0 mi WSW 15.0 mph - N/A   Light Drizzle
2:33 AM 71.6 °F - 66.2 °F 83% 29.86 in 10.0 mi SW 12.7 mph - N/A   Overcast
2:53 AM 71.6 °F - 66.2 °F 83% 29.85 in 10.0 mi SW 13.8 mph 18.4 mph N/A   Overcast
3:14 AM 71.6 °F - 66.2 °F 83% 29.85 in 10.0 mi SW 12.7 mph 18.4 mph N/A   Scattered Clouds
3:34 AM 69.8 °F - 66.2 °F 88% 29.84 in 10.0 mi SW 11.5 mph - N/A   Clear
3:54 AM 69.8 °F - 66.2 °F 88% 29.84 in 10.0 mi SW 10.4 mph - N/A   Clear
4:14 AM 69.8 °F - 66.2 °F 88% 29.84 in 10.0 mi SW 9.2 mph - N/A   Scattered Clouds
4:34 AM 69.8 °F - 66.2 °F 88% 29.84 in 10.0 mi SW 11.5 mph 17.3 mph N/A   Mostly Cloudy
4:54 AM 71.6 °F - 66.2 °F 83% 29.84 in 10.0 mi SW 11.5 mph - N/A   Mostly Cloudy
5:14 AM 71.6 °F - 66.2 °F 83% 29.84 in 10.0 mi SW 10.4 mph 18.4 mph N/A   Scattered Clouds
5:34 AM 69.8 °F - 66.2 °F 88% 29.84 in 10.0 mi SW 9.2 mph - N/A   Clear
5:54 AM 69.8 °F - 66.2 °F 88% 29.84 in 10.0 mi SW 11.5 mph 17.3 mph N/A   Clear
6:14 AM 69.8 °F - 66.2 °F 88% 29.84 in 7.0 mi SW 11.5 mph - N/A   Clear
6:34 AM 69.8 °F - 66.2 °F 88% 29.85 in 7.0 mi SW 10.4 mph 17.3 mph N/A   Clear
6:55 AM 71.6 °F - 66.2 °F 83% 29.85 in 7.0 mi SW 12.7 mph 18.4 mph N/A   Clear
7:15 AM 71.6 °F - 66.2 °F 83% 29.86 in 7.0 mi SW 13.8 mph 21.9 mph N/A   Scattered Clouds
7:35 AM 71.6 °F - 66.2 °F 83% 29.85 in 7.0 mi SW 16.1 mph 19.6 mph N/A   Scattered Clouds
7:55 AM 71.6 °F - 66.2 °F 83% 29.85 in 7.0 mi WSW 13.8 mph 19.6 mph N/A   Scattered Clouds
8:15 AM 73.4 °F - 66.2 °F 78% 29.86 in 10.0 mi WSW 13.8 mph 20.7 mph N/A   Mostly Cloudy
8:35 AM 73.4 °F - 66.2 °F 78% 29.86 in 7.0 mi WSW 18.4 mph 23.0 mph N/A   Scattered Clouds
8:55 AM 75.2 °F - 66.2 °F 73% 29.86 in 10.0 mi WSW 13.8 mph - N/A   Scattered Clouds
9:15 AM 75.2 °F - 66.2 °F 73% 29.86 in 10.0 mi WSW 17.3 mph 24.2 mph N/A   Scattered Clouds
9:35 AM 77.0 °F - 66.2 °F 69% 29.86 in 10.0 mi WSW 16.1 mph - N/A   Clear
9:56 AM 78.8 °F - 64.4 °F 61% 29.85 in 10.0 mi WSW 18.4 mph - N/A   Clear
10:16 AM 80.6 °F 81.8 °F 62.6 °F 54% 29.85 in 10.0 mi West 18.4 mph 26.5 mph N/A   Clear
10:36 AM 80.6 °F 81.5 °F 60.8 °F 51% 29.84 in 10.0 mi WSW 24.2 mph 31.1 mph N/A   Clear
10:56 AM 80.6 °F 81.5 °F 60.8 °F 51% 29.83 in 10.0 mi West 19.6 mph 28.8 mph N/A   Scattered Clouds
11:16 AM 82.4 °F 82.0 °F 57.2 °F 42% 29.84 in 10.0 mi West 21.9 mph 33.4 mph N/A   Scattered Clouds
11:36 AM 82.4 °F 81.7 °F 55.4 °F 39% 29.84 in 10.0 mi West 26.5 mph 33.4 mph N/A   Scattered Clouds
11:56 AM 82.4 °F 81.7 °F 55.4 °F 39% 29.84 in 10.0 mi West 26.5 mph 32.2 mph N/A   Scattered Clouds
12:11 PM 82.4 °F 81.7 °F 55.4 °F 39% 29.84 in 10.0 mi West 18.4 mph 34.5 mph N/A   Scattered Clouds
12:31 PM 82.4 °F 81.7 °F 55.4 °F 39% 29.84 in 10.0 mi West 20.7 mph 29.9 mph N/A   Scattered Clouds
12:51 PM 82.4 °F 81.7 °F 55.4 °F 39% 29.84 in 10.0 mi West 19.6 mph 32.2 mph N/A   Scattered Clouds
1:12 PM 84.2 °F 82.8 °F 53.6 °F 35% 29.84 in 10.0 mi West 27.6 mph 34.5 mph N/A   Scattered Clouds
1:32 PM 82.4 °F - 51.8 °F 35% 29.84 in 10.0 mi WNW 21.9 mph 33.4 mph N/A   Clear
1:52 PM 82.4 °F 81.4 °F 53.6 °F 37% 29.84 in 10.0 mi WNW 23.0 mph 32.2 mph N/A   Scattered Clouds
2:12 PM 82.4 °F - 48.2 °F 30% 29.85 in 5.0 mi West 24.2 mph 35.7 mph N/A   Haze
2:32 PM 82.4 °F - 48.2 °F 30% 29.85 in 7.0 mi West 23.0 mph 32.2 mph N/A   Clear
2:52 PM 82.4 °F - 46.4 °F 28% 29.85 in 7.0 mi West 27.6 mph 38.0 mph N/A   Clear
3:12 PM 82.4 °F - 46.4 °F 28% 29.85 in 10.0 mi West 24.2 mph 32.2 mph N/A   Clear
3:52 PM 82.4 °F - 48.2 °F 30% 29.85 in 10.0 mi West 23.0 mph 28.8 mph N/A   Clear
4:13 PM 82.4 °F - 48.2 °F 30% 29.85 in 10.0 mi West 23.0 mph 28.8 mph N/A   Clear
4:33 PM 82.4 °F - 48.2 °F 30% 29.85 in 10.0 mi WNW 18.4 mph 23.0 mph N/A   Clear
4:53 PM 80.6 °F - 48.2 °F 32% 29.85 in 10.0 mi West 16.1 mph 23.0 mph N/A   Clear
5:13 PM 80.6 °F - 48.2 °F 32% 29.86 in 10.0 mi WNW 19.6 mph 26.5 mph N/A   Clear
5:33 PM 80.6 °F - 48.2 °F 32% 29.86 in 10.0 mi West 18.4 mph 24.2 mph N/A   Clear
5:53 PM 80.6 °F - 48.2 °F 32% 29.86 in 10.0 mi West 16.1 mph 23.0 mph N/A   Clear
6:13 PM 78.8 °F - 48.2 °F 34% 29.86 in 10.0 mi WNW 16.1 mph 23.0 mph N/A   Clear
6:33 PM 78.8 °F - 50.0 °F 36% 29.86 in 10.0 mi West 17.3 mph 20.7 mph N/A   Clear
6:53 PM 78.8 °F - 48.2 °F 34% 29.87 in 10.0 mi WNW 17.3 mph 20.7 mph N/A   Clear
7:14 PM 77.0 °F - 48.2 °F 36% 29.87 in 10.0 mi WNW 15.0 mph 20.7 mph N/A   Clear
7:34 PM 75.2 °F - 48.2 °F 38% 29.88 in 10.0 mi WNW 12.7 mph 18.4 mph N/A   Clear
7:54 PM 75.2 °F - 50.0 °F 41% 29.88 in 10.0 mi WNW 10.4 mph 18.4 mph N/A   Clear
8:14 PM 73.4 °F - 46.4 °F 38% 29.89 in 10.0 mi WNW 10.4 mph - N/A   Clear
8:34 PM 73.4 °F - 48.2 °F 41% 29.89 in 10.0 mi NW 9.2 mph - N/A   Clear
8:54 PM 71.6 °F - 48.2 °F 43% 29.90 in 10.0 mi NW 8.1 mph - N/A   Clear
9:14 PM 69.8 °F - 48.2 °F 46% 29.90 in 10.0 mi NW 8.1 mph - N/A   Clear
9:34 PM 69.8 °F - 48.2 °F 46% 29.91 in 10.0 mi NW 5.8 mph - N/A   Clear
10:14 PM 66.2 °F - 48.2 °F 52% 29.92 in 10.0 mi NW 4.6 mph - N/A   Clear
10:35 PM 66.2 °F - 50.0 °F 56% 29.92 in 10.0 mi NW 4.6 mph - N/A   Clear
11:15 PM 62.6 °F - 50.0 °F 63% 29.91 in 10.0 mi Calm Calm - N/A   Clear
11:35 PM 62.6 °F - 51.8 °F 68% 29.92 in 10.0 mi NW 3.5 mph - N/A   Clear
11:55 PM 60.8 °F - 51.8 °F 72% 29.92 in 10.0 mi NW 3.5 mph - N/A   Clear